{"data":{"norad_id":59300,"epoch":"2026-05-25T04:04:58.488096Z","epoch_age_seconds":50523,"freshness":"FRESH","line1":"1 59300U 24056E   26145.17012139  .00006039  00000+0  22871-3 0  9996","line2":"2 59300  43.0010 158.5637 0001545 291.9199  68.1488 15.27594693122851","mean_motion":15.27594693,"eccentricity":0.0001545,"inclination_deg":43.001,"raan_deg":158.5637,"arg_perigee_deg":291.9199,"mean_anomaly_deg":68.1488,"bstar":0.00022871,"rev_number":12285,"period_min":94.265842019392,"perigee_km":481.94505381003,"apogee_km":484.06514671901,"semimajor_km":6861.1421002645,"source":"CELESTRAK","updated_at":"2026-05-25T13:38:18.898176Z"}}